SCP
0 0 0 0 0 0 0 0 0 0 0 0 0 0 0 0 0 0 0 0 0 0 0 0 0 0 0 0 0 0 0 0 0 0 0 0 0 0 0 0 0 0 0 0
0 0 0 0 0 0 0 0 0 0 0 0 0 0 0 0 0 0 0 0 0 0 0 0 0 0 0 0 0 0 0 0 0 0 0 0 0 0 0 0 0 0 0 0
0 0 0 0 0 0 0 0 0 0 0 0 0 0 0 0 0 0 0 0 0 0 0 0 0 0 0 0 0 0 0 0 0 0 0 0 0 0 0 0 0 0 0 0
0 0 0 0 0 0 0 0 0 0 0 0 0 0 0 0 0 0 0 0 0 0 0 0 0 0 0 0 0 0 0 0 0 0 0 0 0 0 0 0 0 0 0 0
0 0 0 0 0 0 0 0 0 0 0 0 0 0 0 0 0 0 0 0 0 0 0 0 0 0 0 0 0 0 0 0 0 0 0 0 0 0 0 0 0 0 0 0
0 0 0 0 0 0 0 0 0 0 0 0 0 0 0 0 0 0 0 0 0 0 0 0 0 0 0 0 0 0 0 0 0 0 0 0 0 0 0 0 0 0 0 0
0 0 0 0 0 0 0 0 0 0 0 0 0 0 0 0 0 0 0 0 0 0 0 0 0 0 0 0 0 0 0 0 0 0 0 0 0 0 0 0 0 0 0 0
0 0 0 0 0 0 0 0 0 0 0 0 0 0 0 0 0 0 0 0 0 0 0 0 0 0 0 0 0 0 0 0 0 0 0 0 0 0 0 0 0 0 0 0
0 0 0 0 0 0 0 0 0 0 0 0 0 0 0 0 0 0 0 0 0 0 0 0 0 0 0 0 0 0 0 0 0 0 0 0 0 0 0 0 0 0 0 0
0 0 0 0 0 0 0 0 0 0 0 0 0 0 0 0 0 0 0 0 0 0 0 0 0 0 0 0 0 0 0 0 0 0 0 0 0 0 0 0 0 0 0 0
0 0 0 0 0 0 0 0 0 0 0 0 0 0 0 0 0 0 0 0 0 0 0 0 0 0 0 0 0 0 0 0 0 0 0 0 0 0 0 0 0 0 0 0
0 0 0 0 0 0 0 0 0 0 0 0 0 0 0 0 0 0 0 0 0 0 0 0 0 0 0 0 0 0 0 0 0 0 0 0 0 0 0 0 0 0 0 0
0 0 0 0 0 0 0 0 0 0 0 0 0 0 0 0 0 0 0 0 0 0 0 0 0 0 0 0 0 0 0 0 0 0 0 0 0 0 0 0 0 0 0 0
0 0 0 0 0 0 0 0 0 0 0 0 0 0 0 0 0 0 0 0 0 0 0 0 0 0 0 0 0 0 0 0 0 0 0 0 0 0 0 0 0 0 0 0
0 0 0 0 0 0 0 0 0 0 0 0 0 0 0 0 0 0 0 0 0 0 0 0 0 0 0 0 0 0 0 0 0 0 0 0 0 0 0 0 0 0 0 0
0 0 0 0 0 0 0 0 0 0 0 0 0 0 0 0 0 0 0 0 0 0 0 0 0 0 0 0 0 0 0 0 0 0 0 0 0 0 0 0 0 0 0 0
0 0 0 0 0 0 0 0 0 0 0 0 0 0 0 0 0 0 0 0 0 0 0 0 0 0 0 0 0 0 0 0 0 0 0 0 0 0 0 0 0 0 0 0
0 0 0 0 0 0 0 0 0 0 0 0 0 0 0 0 0 0 0 0 0 0 0 0 0 0 0 0 0 0 0 0 0 0 0 0 0 0 0 0 0 0 0 0
0 0 0 0 0 0 0 0 0 0 0 0 0 0 0 0 0 0 0 0 0 0 0 0 0 0 0 0 0 0 0 0 0 0 0 0 0 0 0 0 0 0 0 0
0 0 0 0 0 0 0 0 0 0 0 0 0 0 0 0 0 0 0 0 0 0 0 0 0 0 0 0 0 0 0 0 0 0 0 0 0 0 0 0 0 0 0 0
0 0 0 0 0 0 0 0 0 0 0 0 0 0 0 0 0 0 0 0 0 0 0 0 0 0 0 0 0 0 0 0 0 0 0 0 0 0 0 0 0 0 0 0
0 0 0 0 0 0 0 0 0 0 0 0 0 0 0 0 0 0 0 0 0 0 0 0 0 0 0 0 0 0 0 0 0 0 0 0 0 0 0 0 0 0 0 0
0 0 0 0 0 0 0 0 0 0 0 0 0 0 0 0 0 0 0 0 0 0 0 0 0 0 0 0 0 0 0 0 0 0 0 0 0 0 0 0 0 0 0 0
0 0 0 0 0 0 0 0 0 0 0 0 0 0 0 0 0 0 0 0 0 0 0 0 0 0 0 0 0 0 0 0 0 0 0 0 0 0 0 0 0 0 0 0
0 0 0 0 0 0 0 0 0 0 0 0 0 0 0 0 0 0 0 0 0 0 0 0 0 0 0 0 0 0 0 0 0 0 0 0 0 0 0 0 0 0 0 0
0 0 0 0 0 0 0 0 0 0 0 0 0 0 0 0 0 0 0 0 0 0 0 0 0 0 0 0 0 0 0 0 0 0 0 0 0 0 0 0 0 0 0 0
Wind_Speed
3 4 7 13 12 6 6 7 6 5 2 1 5 7 5 4 6 6 5 5 6 6 6 7 9 9 10 12 13 13 14 12 9 6 6 7 9 9 10 12 15 15 14 14
3 7 11 4 4 3 4 4 5 5 2 3 4 6 1 4 4 3 4 4 4 5 7 9 9 10 11 11 11 12 13 13 11 7 5 5 6 7 8 9 13 15 15 14
11 5 4 7 5 6 6 7 6 6 2 2 2 6 2 3 3 5 4 4 3 4 5 6 8 9 9 11 11 10 12 12 12 9 6 6 6 5 7 10 10 13 13 13
7 4 4 5 7 9 7 8 7 4 2 3 1 5 5 4 3 2 2 2 2 3 4 4 6 7 8 8 7 9 11 12 11 10 12 14 11 9 6 5 6 9 12 13
8 4 6 7 8 10 6 3 5 3 4 1 2 4 8 2 4 5 5 4 2 2 2 3 4 5 5 6 7 7 10 12 11 11 11 12 11 7 5 5 9 9 9 12
5 3 6 7 3 7 7 7 6 5 4 4 6 7 8 5 5 6 7 6 5 4 2 2 3 4 5 6 6 7 10 11 9 11 11 12 11 9 9 9 8 7 6 8
4 4 3 4 6 3 5 6 2 2 1 7 2 4 10 3 2 7 12 10 7 5 4 3 3 4 4 5 5 6 8 9 8 9 10 9 9 9 9 7 7 6 5 6
8 6 8 7 7 9 7 9 8 7 6 5 3 8 7 1 1 3 8 8 7 6 5 5 4 4 4 4 4 5 7 7 6 7 7 7 7 5 5 5 5 5 4 4
10 6 2 3 2 10 7 5 5 7 2 3 7 7 5 2 2 4 7 7 8 8 7 6 5 5 4 4 4 5 6 6 5 6 6 6 5 5 5 4 4 3 3 3
9 5 3 2 5 3 6 9 6 6 5 6 6 5 6 7 7 7 9 11 10 8 7 7 6 6 5 4 4 4 5 5 4 4 4 4 4 4 4 3 4 4 3 4
6 7 3 2 8 10 7 5 5 5 6 6 6 8 6 8 11 14 15 13 11 10 9 8 7 6 6 5 4 4 4 4 3 3 3 3 3 3 3 3 3 3 3 4
6 6 5 6 3 3 6 9 10 8 7 6 5 8 1 3 7 11 12 11 10 9 9 8 8 7 6 6 5 5 4 4 3 3 2 2 2 2 2 3 3 3 4 4
10 8 4 0 0 2 4 5 6 4 5 7 7 9 1 2 4 6 8 9 9 9 9 8 8 8 8 7 6 5 5 5 4 3 2 2 1 1 1 2 3 3 4 4
8 7 9 13 9 9 7 7 7 8 6 7 11 9 4 4 6 6 7 8 8 8 9 10 9 9 8 7 7 6 5 5 4 4 3 2 1 0 1 2 3 3 4 4
7 6 5 3 2 5 8 10 13 13 13 14 11 11 9 10 10 8 7 7 7 8 9 11 11 9 8 7 6 6 5 5 4 4 4 3 2 2 2 2 3 3 4 5
6 6 5 3 2 1 6 9 12 12 9 9 7 10 6 6 5 5 7 7 9 10 10 10 10 10 9 9 8 7 6 5 5 5 4 3 3 2 2 2 3 4 5 5
7 8 7 5 3 2 13 12 13 8 8 10 14 13 4 5 7 8 7 8 10 9 9 10 10 10 9 9 8 8 7 5 5 5 4 4 3 2 1 2 3 4 5 6
10 8 5 5 5 13 9 1 8 9 9 9 6 5 6 7 4 4 6 8 9 8 8 9 8 8 7 7 7 6 5 5 6 5 5 4 3 2 1 2 3 4 5 6
4 9 6 6 7 9 7 4 7 9 9 9 11 11 4 3 1 3 6 8 8 8 8 8 8 8 7 7 7 6 6 5 6 6 5 4 3 2 0 2 4 4 5 6
4 5 7 6 7 11 8 4 4 6 7 7 10 9 6 7 3 6 6 7 8 7 6 7 6 6 6 7 6 7 7 7 7 6 5 5 3 2 1 3 4 3 5 7
5 4 7 8 9 11 5 5 7 7 9 4 8 7 10 10 9 5 5 7 8 8 8 7 7 7 8 7 7 8 7 8 6 5 5 4 2 1 2 3 3 4 6 7
12 10 8 6 8 13 9 10 12 9 4 6 7 8 10 10 8 6 6 7 8 8 8 7 7 7 6 7 8 9 8 6 6 6 4 3 1 1 2 3 4 4 5 7
9 11 9 12 10 2 12 11 9 6 7 8 8 9 10 9 8 8 7 9 9 9 9 7 8 7 5 6 8 9 6 7 7 5 3 2 2 3 3 3 5 4 4 5
6 3 5 5 6 3 7 5 4 6 8 8 8 8 9 9 9 9 8 8 9 9 9 7 7 8 8 7 6 6 7 7 6 5 3 3 3 3 3 3 4 4 4 5
9 9 6 5 3 2 6 11 11 9 7 6 6 7 9 9 9 9 9 9 9 9 7 7 8 10 9 8 7 6 7 7 6 4 4 3 4 4 4 4 5 6 7 8
8 11 11 9 10 9 8 10 12 11 11 11 10 9 9 10 11 10 10 9 8 8 6 6 8 8 7 7 7 6 6 6 6 4 4 3 3 3 4 4 5 10 12 16
Wind_Direction
109 124 201 205 197 185 168 177 216 244 252 231 243 260 301 17 61 71 67 58 48 37 13 13 11 9 17 24 30 32 37 31 38 48 53 58 55 48 48 45 40 39 38 38
96 232 226 176 171 178 165 189 234 274 263 216 257 265 334 37 59 78 92 73 57 42 21 17 17 20 24 28 29 36 38 37 41 50 60 72 77 58 54 48 44 39 39 37
189 216 180 154 165 182 202 202 211 228 330 17 316 289 207 96 87 73 70 70 61 62 39 19 20 20 25 30 27 38 41 44 42 48 69 72 63 56 45 39 41 37 39 40
229 232 146 167 192 171 224 213 194 192 183 275 305 283 275 163 141 121 112 94 78 56 46 35 28 28 27 24 25 41 49 50 45 50 67 73 74 69 49 45 47 43 42 41
227 201 177 194 199 170 193 130 146 159 172 251 249 228 272 161 198 195 185 175 159 119 83 60 44 43 35 28 36 44 57 56 52 57 66 77 78 76 66 54 51 44 39 38
235 215 193 199 159 160 129 85 67 55 87 245 217 197 264 221 201 175 184 188 183 164 131 94 68 61 53 43 46 53 66 62 56 64 67 76 81 77 68 55 48 40 35 33
234 229 202 147 107 113 130 114 67 335 281 246 197 208 249 210 164 179 181 184 186 177 166 150 119 91 78 68 63 66 77 71 62 69 70 73 77 75 71 64 54 47 37 29
182 225 202 185 167 162 178 156 168 201 222 263 225 229 250 107 333 174 162 167 174 183 184 176 162 140 118 103 91 86 85 83 75 76 75 73 76 78 76 69 65 56 44 31
180 213 112 170 155 137 145 193 155 121 108 269 256 267 282 130 104 130 150 168 190 195 191 186 179 168 155 140 127 117 107 99 92 92 91 82 80 80 79 73 65 56 37 24
161 183 176 136 89 33 149 144 122 149 192 247 268 246 235 207 199 182 188 196 204 200 194 192 189 186 179 167 151 134 125 122 119 110 103 100 90 84 81 70 53 40 24 16
161 155 155 161 189 176 140 155 153 150 161 177 254 259 225 205 185 190 200 201 200 199 196 193 193 192 185 177 170 158 150 139 133 128 118 105 92 79 65 54 36 20 10 6
165 140 181 223 216 187 181 177 156 169 210 200 219 263 310 205 184 187 196 200 202 201 195 191 189 188 188 190 189 185 178 173 176 169 149 128 103 70 49 32 17 10 0 356
149 140 136 353 94 191 210 200 192 161 157 179 202 260 359 97 158 189 194 199 201 199 195 191 190 193 196 197 197 198 199 201 200 187 175 160 127 57 27 12 7 1 353 347
137 156 178 193 198 176 192 200 182 162 188 212 223 237 202 200 201 202 203 203 202 201 198 194 196 198 200 200 200 202 210 209 201 190 185 189 189 116 29 16 11 359 353 350
141 190 204 187 138 165 192 201 190 196 204 216 229 229 219 206 213 211 209 208 206 209 204 199 198 199 200 202 206 208 212 208 195 189 192 194 157 109 70 38 14 357 356 349
157 176 161 175 65 155 251 228 199 210 214 222 242 251 215 209 202 213 212 206 213 216 210 202 199 198 200 203 205 207 211 206 187 188 188 161 133 105 69 27 358 346 342 336
163 150 165 200 101 38 255 217 189 195 191 185 220 238 195 204 215 221 218 211 216 216 206 200 199 200 201 202 199 203 206 190 179 178 167 151 134 116 65 2 343 337 332 330
158 154 160 135 134 224 241 120 179 194 213 206 221 237 210 211 213 216 207 207 215 208 201 199 197 201 204 200 196 194 181 177 177 173 165 154 143 133 58 345 329 326 325 323
148 142 139 158 208 263 285 203 159 174 236 213 218 234 222 138 106 267 220 206 206 202 197 198 197 196 195 196 188 173 178 178 179 182 175 161 149 142 358 320 317 318 316 309
54 124 144 159 190 230 244 178 159 115 263 229 206 219 171 136 189 255 213 199 207 206 200 199 195 188 195 198 171 174 188 188 198 186 162 148 144 155 261 292 301 299 300 296
131 148 185 190 218 246 216 156 136 169 237 202 184 185 166 185 206 217 188 196 206 207 208 202 192 197 207 186 168 189 196 204 184 142 138 144 143 186 262 276 282 291 293 295
166 172 189 173 214 241 165 154 185 204 173 167 178 184 187 209 224 221 210 212 213 214 216 204 199 213 204 175 177 198 206 175 137 140 146 157 188 263 262 268 278 278 281 289
198 188 183 194 215 221 165 189 203 173 176 187 190 198 197 209 223 224 223 223 222 219 219 208 204 214 201 184 186 201 182 142 143 146 170 206 243 252 249 255 270 274 268 274
231 184 168 222 252 214 214 243 229 199 204 204 198 198 193 209 223 227 229 229 228 226 224 213 200 210 212 193 188 179 147 144 145 170 198 220 235 250 247 251 255 256 258 264
203 169 171 212 239 225 241 231 232 227 229 237 228 212 207 213 228 230 233 233 230 230 225 207 204 215 213 179 172 157 147 146 161 183 206 226 232 243 259 258 246 256 243 242
187 169 168 201 201 190 214 220 217 218 227 227 227 235 224 212 227 232 234 235 230 228 218 208 209 210 194 166 167 159 154 157 169 194 210 216 229 241 253 268 281 280 281 283